| time (UTC) | temp F | wind direction | speed knots | gust knots | rain 1hr in | rain 24hr in | rain mn in | humidity % | barometer mb |
| 20260505152004 | 83 | 0.0 | 0.0 | 0.00 | 0.00 | 0.00 | 21 | 1014.5 | |
| 20260505151959 | 83 | 0.0 | 0.0 | 0.00 | 0.00 | 0.00 | 21 | 1014.5 | |
| 20260505150504 | 83 | 0.0 | 0.0 | 0.00 | 0.00 | 0.00 | 21 | 1014.5 | |
| 20260505150459 | 83 | 0.0 | 0.0 | 0.00 | 0.00 | 0.00 | 21 | 1014.5 | |
| 20260505140504 | 88 | 0.0 | 0.0 | 0.00 | 0.00 | 0.00 | 17 | 1014.9 | |
| 20260505140459 | 88 | 0.0 | 0.0 | 0.00 | 0.00 | 0.00 | 17 | 1014.9 | |
| 20260505125004 | 91 | 0.0 | 0.0 | 0.00 | 0.00 | 0.00 | 15 | 1015.6 | |
| 20260505124959 | 91 | 0.0 | 0.0 | 0.00 | 0.00 | 0.00 | 15 | 1015.6 | |
| 20260505123504 | 90 | 0.0 | 0.0 | 0.00 | 0.00 | 0.00 | 16 | 1015.7 | |
| 20260505123500 | 90 | 0.0 | 0.0 | 0.00 | 0.00 | 0.00 | 16 | 1015.7 | |
| 20260505122000 | 85 | 0.0 | 0.0 | 0.00 | 0.00 | 0.00 | 19 | 1015.9 | |
| 20260505120504 | 88 | 0.0 | 0.0 | 0.00 | 0.00 | 0.00 | 18 | 1016.0 | |
| 20260505120500 | 88 | 0.0 | 0.0 | 0.00 | 0.00 | 0.00 | 18 | 1016.0 | |
| 20260505115004 | 87 | 0.0 | 0.0 | 0.00 | 0.00 | 0.00 | 17 | 1016.1 | |
| 20260505115000 | 87 | 0.0 | 0.0 | 0.00 | 0.00 | 0.00 | 17 | 1016.1 | |
| 20260505113504 | 88 | 0.0 | 0.0 | 0.00 | 0.00 | 0.00 | 17 | 1016.2 | |
| 20260505113500 | 88 | 0.0 | 0.0 | 0.00 | 0.00 | 0.00 | 17 | 1016.2 | |
| 20260505112004 | 87 | 0.0 | 0.0 | 0.00 | 0.00 | 0.00 | 19 | 1016.4 | |
| 20260505112000 | 87 | 0.0 | 0.0 | 0.00 | 0.00 | 0.00 | 19 | 1016.4 | |
| 20260505110505 | 88 | 0.0 | 0.0 | 0.00 | 0.00 | 0.00 | 17 | 1016.5 | |
| 20260505110500 | 88 | 0.0 | 0.0 | 0.00 | 0.00 | 0.00 | 17 | 1016.5 | |
| 20260505102005 | 84 | 0.0 | 0.0 | 0.00 | 0.00 | 0.00 | 21 | 1016.6 | |
| 20260505102000 | 84 | 0.0 | 0.0 | 0.00 | 0.00 | 0.00 | 21 | 1016.6 | |
| 20260505100505 | 83 | 0.0 | 0.0 | 0.00 | 0.00 | 0.00 | 21 | 1016.7 | |
| 20260505100500 | 83 | 0.0 | 0.0 | 0.00 | 0.00 | 0.00 | 21 | 1016.7 | |
| 20260505095005 | 83 | 0.0 | 0.0 | 0.00 | 0.00 | 0.00 | 22 | 1016.9 | |
| 20260505095000 | 83 | 0.0 | 0.0 | 0.00 | 0.00 | 0.00 | 22 | 1016.9 | |
| 20260505093505 | 83 | 0.0 | 0.0 | 0.00 | 0.00 | 0.00 | 22 | 1017.0 | |
| 20260505093500 | 83 | 0.0 | 0.0 | 0.00 | 0.00 | 0.00 | 22 | 1017.0 | |
| 20260505092008 | 82 | 0.0 | 0.0 | 0.00 | 0.00 | 0.00 | 22 | 1017.1 | |
| 20260505092000 | 82 | 0.0 | 0.0 | 0.00 | 0.00 | 0.00 | 22 | 1017.1 | |
| 20260505090505 | 82 | 0.0 | 0.0 | 0.00 | 0.00 | 0.00 | 23 | 1017.1 | |
| 20260505090500 | 82 | 0.0 | 0.0 | 0.00 | 0.00 | 0.00 | 23 | 1017.1 | |
| 20260505085005 | 81 | 0.0 | 0.0 | 0.00 | 0.00 | 0.00 | 24 | 1017.2 | |
| 20260505085000 | 81 | 0.0 | 0.0 | 0.00 | 0.00 | 0.00 | 24 | 1017.2 | |
| 20260505083505 | 81 | 0.0 | 0.0 | 0.00 | 0.00 | 0.00 | 24 | 1017.2 | |
| 20260505083500 | 81 | 0.0 | 0.0 | 0.00 | 0.00 | 0.00 | 24 | 1017.2 | |
| 20260505082005 | 81 | 0.0 | 0.0 | 0.00 | 0.00 | 0.00 | 25 | 1017.3 | |
| 20260505082000 | 81 | 0.0 | 0.0 | 0.00 | 0.00 | 0.00 | 25 | 1017.3 | |
| 20260505080505 | 79 | 0.0 | 0.0 | 0.00 | 0.00 | 0.00 | 25 | 1017.3 | |
| 20260505080500 | 79 | 0.0 | 0.0 | 0.00 | 0.00 | 0.00 | 25 | 1017.3 | |
| 20260505075005 | 79 | 0.0 | 0.0 | 0.00 | 0.00 | 0.00 | 25 | 1017.4 | |
| 20260505075000 | 79 | 0.0 | 0.0 | 0.00 | 0.00 | 0.00 | 25 | 1017.4 | |
| 20260505073505 | 78 | 0.0 | 0.0 | 0.00 | 0.00 | 0.00 | 25 | 1017.4 | |
| 20260505073500 | 78 | 0.0 | 0.0 | 0.00 | 0.00 | 0.00 | 25 | 1017.4 | |
| 20260505072005 | 77 | 0.0 | 0.0 | 0.00 | 0.00 | 0.00 | 25 | 1017.5 | |
| 20260505072000 | 77 | 0.0 | 0.0 | 0.00 | 0.00 | 0.00 | 25 | 1017.5 | |
| 20260505070505 | 77 | 0.0 | 0.0 | 0.00 | 0.00 | 0.00 | 25 | 1017.5 | |
| 20260505070500 | 77 | 0.0 | 0.0 | 0.00 | 0.00 | 0.00 | 25 | 1017.5 | |
| 20260505065000 | 73 | 0.0 | 0.0 | 0.00 | 0.00 | 0.00 | 29 | 1017.4 | |
| 20260505063505 | 73 | 0.0 | 0.0 | 0.00 | 0.00 | 0.00 | 28 | 1017.4 | |
| 20260505063500 | 73 | 0.0 | 0.0 | 0.00 | 0.00 | 0.00 | 28 | 1017.4 | |
| 20260505062005 | 74 | 0.0 | 0.0 | 0.00 | 0.00 | 0.00 | 27 | 1017.2 | |
| 20260505062000 | 74 | 0.0 | 0.0 | 0.00 | 0.00 | 0.00 | 27 | 1017.2 | |
| 20260505060500 | 76 | 0.0 | 0.0 | 0.00 | 0.00 | 0.00 | 26 | 1017.3 | |
| 20260505055005 | 79 | 0.0 | 0.0 | 0.00 | 0.00 | 0.00 | 25 | 1017.3 | |
| 20260505055000 | 79 | 0.0 | 0.0 | 0.00 | 0.00 | 0.00 | 25 | 1017.3 | |
| 20260505053505 | 78 | 0.0 | 0.0 | 0.00 | 0.00 | 0.00 | 27 | 1017.3 | |
| 20260505053500 | 78 | 0.0 | 0.0 | 0.00 | 0.00 | 0.00 | 27 | 1017.3 | |
| 20260505052000 | 71 | 0.0 | 0.0 | 0.00 | 0.00 | 0.00 | 31 | 1017.3 | |
| 20260505050500 | 67 | 0.0 | 0.0 | 0.00 | 0.00 | 0.00 | 34 | 1017.2 | |
| 20260505040505 | 62 | 0.0 | 0.0 | 0.00 | 0.00 | 0.00 | 37 | 1017.0 | |
| 20260505040500 | 62 | 0.0 | 0.0 | 0.00 | 0.00 | 0.00 | 37 | 1017.0 | |
| 20260505035005 | 61 | 0.0 | 0.0 | 0.00 | 0.00 | 0.00 | 38 | 1017.1 | |
| 20260505035000 | 61 | 0.0 | 0.0 | 0.00 | 0.00 | 0.00 | 38 | 1017.1 | |
| 20260505033500 | 60 | 0.0 | 0.0 | 0.00 | 0.00 | 0.00 | 39 | 1017.0 | |
| 20260505032005 | 60 | 0.0 | 0.0 | 0.00 | 0.00 | 0.00 | 40 | 1017.0 | |
| 20260505032000 | 60 | 0.0 | 0.0 | 0.00 | 0.00 | 0.00 | 40 | 1017.0 | |
| 20260505030505 | 61 | 0.0 | 0.0 | 0.00 | 0.00 | 0.00 | 38 | 1017.0 | |
| 20260505030500 | 61 | 0.0 | 0.0 | 0.00 | 0.00 | 0.00 | 38 | 1017.0 | |
| 20260505025005 | 61 | 0.0 | 0.0 | 0.00 | 0.00 | 0.00 | 39 | 1017.0 | |
| 20260505025000 | 61 | 0.0 | 0.0 | 0.00 | 0.00 | 0.00 | 39 | 1017.0 | |
| 20260505023501 | 61 | 0.0 | 0.0 | 0.00 | 0.00 | 0.00 | 38 | 1017.0 | |
| 20260505022005 | 61 | 0.0 | 0.0 | 0.00 | 0.00 | 0.00 | 39 | 1017.0 | |
| 20260505022000 | 61 | 0.0 | 0.0 | 0.00 | 0.00 | 0.00 | 39 | 1017.0 | |
| 20260505020500 | 60 | 0.0 | 0.0 | 0.00 | 0.00 | 0.00 | 41 | 1017.0 | |
| 20260505015001 | 61 | 0.0 | 0.0 | 0.00 | 0.00 | 0.00 | 40 | 1017.1 | |
| 20260505013506 | 61 | 0.0 | 0.0 | 0.00 | 0.00 | 0.00 | 41 | 1017.0 | |
| 20260505013501 | 61 | 0.0 | 0.0 | 0.00 | 0.00 | 0.00 | 41 | 1017.0 | |
| 20260505012005 | 61 | 0.0 | 0.0 | 0.00 | 0.00 | 0.00 | 39 | 1017.0 | |
| 20260505012001 | 61 | 0.0 | 0.0 | 0.00 | 0.00 | 0.00 | 39 | 1017.0 | |
| 20260505010501 | 61 | 0.0 | 0.0 | 0.00 | 0.00 | 0.00 | 39 | 1017.0 | |
| 20260505005006 | 61 | 0.0 | 0.0 | 0.00 | 0.00 | 0.00 | 39 | 1017.0 | |
| 20260505005001 | 61 | 0.0 | 0.0 | 0.00 | 0.00 | 0.00 | 39 | 1017.0 | |
| 20260505003501 | 61 | 0.0 | 0.0 | 0.00 | 0.00 | 0.00 | 39 | 1017.0 | |
| 20260505002006 | 61 | 0.0 | 0.0 | 0.00 | 0.00 | 0.00 | 39 | 1017.0 | |
| 20260505002001 | 61 | 0.0 | 0.0 | 0.00 | 0.00 | 0.00 | 39 | 1017.0 | |
| 20260505000506 | 63 | 0.0 | 0.0 | 0.00 | 0.00 | 0.00 | 36 | 1017.0 | |
| 20260505000501 | 63 | 0.0 | 0.0 | 0.00 | 0.00 | 0.00 | 36 | 1017.0 | |
| 20260504235006 | 63 | 0.0 | 0.0 | 0.00 | 0.00 | 0.00 | 36 | 1017.0 | |
| 20260504235001 | 63 | 0.0 | 0.0 | 0.00 | 0.00 | 0.00 | 36 | 1017.0 | |
| 20260504233506 | 63 | 0.0 | 0.0 | 0.00 | 0.00 | 0.00 | 36 | 1017.1 | |
| 20260504233501 | 63 | 0.0 | 0.0 | 0.00 | 0.00 | 0.00 | 36 | 1017.1 | |
| 20260504232006 | 62 | 0.0 | 0.0 | 0.00 | 0.00 | 0.00 | 37 | 1017.2 | |
| 20260504232001 | 62 | 0.0 | 0.0 | 0.00 | 0.00 | 0.00 | 37 | 1017.2 | |
| 20260504230506 | 62 | 0.0 | 0.0 | 0.00 | 0.00 | 0.00 | 37 | 1017.4 | |
| 20260504230502 | 62 | 0.0 | 0.0 | 0.00 | 0.00 | 0.00 | 37 | 1017.4 | |
| 20260504225006 | 63 | 0.0 | 0.0 | 0.00 | 0.00 | 0.00 | 36 | 1017.4 | |
| 20260504225001 | 63 | 0.0 | 0.0 | 0.00 | 0.00 | 0.00 | 36 | 1017.4 | |
| 20260504223506 | 62 | 0.0 | 0.0 | 0.00 | 0.00 | 0.00 | 37 | 1017.4 | |
| 20260504223501 | 62 | 0.0 | 0.0 | 0.00 | 0.00 | 0.00 | 37 | 1017.4 | |
| 20260504222001 | 62 | 0.0 | 0.0 | 0.00 | 0.00 | 0.00 | 38 | 1017.5 | |
| 20260504220501 | 62 | 0.0 | 0.0 | 0.00 | 0.00 | 0.00 | 37 | 1017.6 | |
| 20260504215006 | 62 | 0.0 | 0.0 | 0.00 | 0.00 | 0.00 | 37 | 1017.5 | |
| 20260504215001 | 62 | 0.0 | 0.0 | 0.00 | 0.00 | 0.00 | 37 | 1017.5 | |
| 20260504213506 | 61 | 0.0 | 0.0 | 0.00 | 0.00 | 0.00 | 39 | 1017.5 | |
| 20260504213501 | 61 | 0.0 | 0.0 | 0.00 | 0.00 | 0.00 | 39 | 1017.5 | |
| 20260504212006 | 62 | 0.0 | 0.0 | 0.00 | 0.00 | 0.00 | 37 | 1017.5 | |
| 20260504212001 | 62 | 0.0 | 0.0 | 0.00 | 0.00 | 0.00 | 37 | 1017.5 | |
| 20260504210506 | 61 | 0.0 | 0.0 | 0.00 | 0.00 | 0.00 | 37 | 1017.2 | |
| 20260504210501 | 61 | 0.0 | 0.0 | 0.00 | 0.00 | 0.00 | 37 | 1017.2 | |
| 20260504205006 | 62 | 0.0 | 0.0 | 0.00 | 0.00 | 0.00 | 36 | 1017.2 | |
| 20260504205001 | 62 | 0.0 | 0.0 | 0.00 | 0.00 | 0.00 | 36 | 1017.2 | |
| 20260504203501 | 65 | 0.0 | 0.0 | 0.00 | 0.00 | 0.00 | 31 | 1017.1 | |
| 20260504202006 | 66 | 0.0 | 0.0 | 0.00 | 0.00 | 0.00 | 30 | 1017.0 | |
| 20260504202001 | 66 | 0.0 | 0.0 | 0.00 | 0.00 | 0.00 | 30 | 1017.0 | |
| 20260504200506 | 66 | 0.0 | 0.0 | 0.00 | 0.00 | 0.00 | 31 | 1017.0 | |
| 20260504200501 | 66 | 0.0 | 0.0 | 0.00 | 0.00 | 0.00 | 31 | 1017.0 | |
| 20260504195001 | 66 | 0.0 | 0.0 | 0.00 | 0.00 | 0.00 | 30 | 1016.9 | |
| 20260504193506 | 66 | 0.0 | 0.0 | 0.00 | 0.00 | 0.00 | 31 | 1016.9 | |
| 20260504193501 | 66 | 0.0 | 0.0 | 0.00 | 0.00 | 0.00 | 31 | 1016.9 | |
| 20260504192006 | 66 | 0.0 | 0.0 | 0.00 | 0.00 | 0.00 | 31 | 1016.9 | |
| 20260504192001 | 66 | 0.0 | 0.0 | 0.00 | 0.00 | 0.00 | 31 | 1016.9 | |
| 20260504190506 | 65 | 0.0 | 0.0 | 0.00 | 0.00 | 0.00 | 32 | 1016.9 | |
| 20260504190501 | 65 | 0.0 | 0.0 | 0.00 | 0.00 | 0.00 | 32 | 1016.9 | |
| 20260504185006 | 63 | 0.0 | 0.0 | 0.00 | 0.00 | 0.00 | 35 | 1016.9 | |
| 20260504185001 | 63 | 0.0 | 0.0 | 0.00 | 0.00 | 0.00 | 35 | 1016.9 | |
| 20260504183501 | 63 | 0.0 | 0.0 | 0.00 | 0.00 | 0.00 | 36 | 1016.8 | |
| 20260504182006 | 64 | 0.0 | 0.0 | 0.00 | 0.00 | 0.00 | 35 | 1016.8 | |
| 20260504182001 | 64 | 0.0 | 0.0 | 0.00 | 0.00 | 0.00 | 35 | 1016.8 | |
| 20260504180506 | 65 | 0.0 | 0.0 | 0.00 | 0.00 | 0.00 | 34 | 1016.9 | |
| 20260504180501 | 65 | 0.0 | 0.0 | 0.00 | 0.00 | 0.00 | 34 | 1016.9 | |
| 20260504175006 | 64 | 0.0 | 0.0 | 0.00 | 0.00 | 0.00 | 35 | 1016.9 | |
| 20260504175001 | 64 | 0.0 | 0.0 | 0.00 | 0.00 | 0.00 | 35 | 1016.9 | |
| 20260504173506 | 66 | 0.0 | 0.0 | 0.00 | 0.00 | 0.00 | 33 | 1016.9 | |
| 20260504173501 | 66 | 0.0 | 0.0 | 0.00 | 0.00 | 0.00 | 33 | 1016.9 | |
| 20260504172006 | 67 | 0.0 | 0.0 | 0.00 | 0.00 | 0.00 | 33 | 1016.8 | |
| 20260504172001 | 67 | 0.0 | 0.0 | 0.00 | 0.00 | 0.00 | 33 | 1016.8 | |
| 20260504170501 | 72 | 0.0 | 0.0 | 0.00 | 0.00 | 0.00 | 28 | 1017.0 |